User: anonymous   Login
Location: Caltech
(34.1382°N, 118.1253°W)
Time: 14:48:04
(UTC-07:00)
Language:

Sapphire - Orbit

View from above orbital plane
View from above orbital plane
View from above satellite
View from above satellite

Ground track
Ground track

The orbit data is extracted from the following two-line orbital elements,

1 26932U 01043D   15209.14205428 -.00000016  00000-0  25716-4 0  9996
2 26932 067.0560 072.8578 0004413 256.6533 103.4076 14.30158295721691
Epoch (UTC): 28 July 2015 03:24:33
Eccentricity: 0.0004413
inclination: 67.0560°
perigee height: 788 km
apogee height: 794 km
right ascension of ascending node: 72.8578°
argument of perigee: 256.6533°
revolutions per day: 14.30158295
mean anomaly at epoch: 103.4076°
orbit number at epoch: 72169

The dashed part of the orbit path shows where the satellite is in the earth's shadow,  

DLR